GW3882 Weather Reports


time (UTC)temp
C
wind
direction
speed
KPH
gust
KPH
rain 1hr
cm
rain 24hr
cm
rain mn
cm
humidity
%
barometer
mb
20260906230018 18 336 4.8 16.1 0.00 0.03 0.03 73 1014.8
20260906224517 18 332 6.4 14.5 0.00 0.03 0.03 73 1015.1
20260906223016 18 344 4.8 14.5 0.00 0.03 0.03 73 1015.1
20260906221515 18 335 4.8 16.1 0.00 0.03 0.03 73 1015.1
20260906220015 18 344 8.0 17.7 0.00 0.03 0.03 72 1015.0
20260906214511 18 355 6.4 16.1 0.00 0.03 0.03 74 1015.0
20260906213009 17 25 4.8 17.7 0.00 0.03 0.03 75 1015.2
20260906211506 17 338 8.0 16.1 0.00 0.03 0.03 76 1015.2
20260906210107 17 25 8.0 19.3 0.00 0.03 0.03 77 1015.2
20260906204504 17 34 6.4 16.1 0.00 0.03 0.03 77 1015.4
20260906203003 17 355 4.8 16.1 0.00 0.03 0.03 77 1015.4
20260906201503 16 342 6.4 19.3 0.00 0.03 0.03 76 1015.4
20260906200003 17 11 6.4 17.7 0.00 0.03 0.03 75 1015.5
20260906194601 17 344 4.8 20.9 0.00 0.03 0.03 75 1015.5
20260906193100 17 29 6.4 20.9 0.00 0.03 0.03 73 1015.5
20260906191557 16 355 12.9 25.7 0.00 0.03 0.03 74 1015.4
20260906190111 16 52 9.7 22.5 0.00 0.03 0.03 77 1015.5
20260906184554 16 360 8.0 19.3 0.00 0.03 0.03 79 1015.7
20260906183052 15 355 11.3 22.5 0.00 0.03 0.03 81 1015.9
20260906181545 15 77 16.1 27.4 0.00 0.03 0.03 87 1015.3
20260906180043 13 351 12.9 19.3 0.00 0.03 0.03 91 1016.2
20260906174542 12 5 3.2 16.1 0.00 0.03 0.03 92 1017.2
20260906173037 12 314 4.8 14.5 0.00 0.03 0.03 92 1017.4
20260906171537 12 355 6.4 14.5 0.00 0.03 0.03 93 1017.3
20260906170036 13 341 6.4 16.1 0.00 0.03 0.03 94 1017.3
20260906164537 13 49 4.8 11.3 0.03 0.03 0.03 95 1017.2
20260906163035 12 333 3.2 9.7 0.03 0.03 0.03 95 1017.3
20260906161535 12 16 3.2 9.7 0.03 0.03 0.03 95 1017.2
20260906160034 12 345 4.8 9.7 0.03 0.03 0.03 93 1017.4
20260906154541 12 329 4.8 14.5 0.00 0.00 0.00 92 1017.5
20260906153033 12 284 9.7 19.3 0.00 0.00 0.00 90 1017.8
20260906151533 13 291 9.7 22.5 0.00 0.00 0.00 90 1017.9
20260906150040 13 5 1.6 12.9 0.00 0.00 0.00 90 1017.7
20260906144533 13 32 3.2 9.7 0.00 0.00 0.00 91 1017.7
20260906143029 13 42 4.8 17.7 0.00 0.00 0.00 92 1017.5
20260906141527 13 16 6.4 17.7 0.00 0.00 0.00 93 1017.3
20260906140027 12 49 6.4 14.5 0.00 0.00 0.00 94 1017.7
20260906134539 12 30 8.0 17.7 0.00 0.03 0.00 94 1017.4
20260906133042 12 29 6.4 17.7 0.00 0.03 0.00 94 1017.3
20260906131525 12 54 3.2 12.9 0.00 0.03 0.00 95 1017.4
20260906130025 11 5 4.8 12.9 0.00 0.03 0.00 95 1017.6
20260906124524 11 344 4.8 14.5 0.00 0.03 0.00 95 1017.8
20260906123029 11 24 6.4 17.7 0.00 0.03 0.00 95 1017.4
20260906121522 11 355 9.7 22.5 0.00 0.03 0.00 94 1017.4
20260906120021 11 28 9.7 20.9 0.00 0.03 0.00 94 1017.6
20260906114521 11 350 9.7 20.9 0.00 0.03 0.00 94 1017.5
20260906113020 11 338 12.9 24.1 0.00 0.03 0.00 94 1017.4
20260906111519 11 28 11.3 24.1 0.00 0.03 0.00 94 1017.6
20260906110017 12 44 8.0 20.9 0.00 0.03 0.00 94 1017.6
20260906104522 12 355 9.7 22.5 0.00 0.03 0.00 94 1017.6
20260906103015 11 355 12.9 25.7 0.00 0.03 0.00 94 1017.6
20260906101526 11 5 14.5 24.1 0.00 0.03 0.00 94 1017.8
20260906100014 11 350 12.9 27.4 0.00 0.03 0.00 94 1017.6
20260906094512 11 21 16.1 25.7 0.00 0.03 0.00 94 1017.4
20260906093010 11 315 6.4 24.1 0.00 0.03 0.00 93 1017.9
20260906091508 11 309 4.8 29.0 0.00 0.03 0.00 93 1017.9
20260906090007 11 317 16.1 29.0 0.00 0.03 0.00 92 1018.0
20260906084502 11 360 16.1 29.0 0.00 0.03 0.00 92 1018.1
20260906083101 11 17 16.1 33.8 0.00 0.03 0.00 91 1018.2
20260906081556 12 9 14.5 30.6 0.00 0.03 0.00 90 1018.3
20260906080054 12 30 14.5 29.0 0.00 0.03 0.00 89 1018.1
20260906074551 12 335 11.3 22.5 0.00 0.03 0.00 88 1018.3
20260906073048 12 11 9.7 22.5 0.00 0.03 0.00 88 1018.4
20260906071546 12 355 12.9 25.7 0.00 0.03 0.00 88 1018.6
20260906070045 12 26 14.5 29.0 0.00 0.03 0.00 87 1018.7
20260906064542 12 355 12.9 27.4 0.00 0.03 0.00 87 1018.8
20260906063040 12 5 11.3 25.7 0.00 0.03 0.00 87 1019.1
20260906061538 12 344 12.9 24.1 0.00 0.03 0.00 86 1019.1
20260906060036 13 360 17.7 27.4 0.00 0.03 0.00 86 1019.0
20260906054534 13 336 16.1 29.0 0.00 0.03 0.03 85 1019.0
20260906053039 13 355 17.7 30.6 0.00 0.03 0.03 85 1018.7
20260906051534 13 33 14.5 38.6 0.00 0.03 0.03 84 1018.6
20260906050031 13 35 17.7 35.4 0.00 0.03 0.03 83 1018.6
20260906044531 13 13 9.7 25.7 0.00 0.03 0.03 82 1019.5
20260906043031 13 344 16.1 30.6 0.00 0.03 0.03 81 1018.3
20260906041530 13 297 16.1 32.2 0.00 0.03 0.03 80 1018.1
20260906040035 13 5 17.7 30.6 0.00 0.03 0.03 78 1018.2
20260906034540 14 11 12.9 30.6 0.00 0.03 0.03 75 1018.4
20260906033028 14 312 16.1 29.0 0.00 0.03 0.03 75 1018.5
20260906031532 14 300 11.3 24.1 0.00 0.03 0.03 75 1018.8
20260906030027 14 5 19.3 35.4 0.00 0.03 0.03 74 1017.7
20260906024527 14 360 16.1 32.2 0.00 0.03 0.03 73 1017.4
20260906023026 14 348 12.9 32.2 0.00 0.03 0.03 72 1017.3
20260906021527 15 331 16.1 29.0 0.00 0.03 0.03 72 1017.4
20260906020029 15 360 14.5 33.8 0.00 0.03 0.03 69 1017.4
20260906014533 16 5 16.1 32.2 0.00 0.03 0.03 68 1017.4
20260906013029 16 9 11.3 24.1 0.00 0.03 0.03 65 1017.3
20260906011523 17 334 11.3 25.7 0.00 0.03 0.03 62 1017.3
20260906010022 18 5 12.9 27.4 0.00 0.03 0.03 59 1017.2
20260906004522 19 339 12.9 24.1 0.00 0.03 0.03 57 1017.3
20260906003021 20 5 9.7 24.1 0.00 0.03 0.03 54 1017.3
20260906001521 20 279 12.9 22.5 0.00 0.03 0.03 54 1017.2
20260906000022 21 346 9.7 22.5 0.00 0.03 0.03 51 1017.1
20260905234521 21 355 6.4 22.5 0.00 0.03 0.03 47 1017.3
20260905233024 22 305 8.0 20.9 0.00 0.03 0.03 46 1017.2
20260905231518 22 35 9.7 20.9 0.00 0.03 0.03 45 1017.2